Location: Julian California
(33.0790°N, 116.6010°W)
Time: 13:25:33
(UTC-08:00)

USA 215 - Pass Details

Date: 12 July 2018
Orbit: 1100 x 1107 km, 123.0° (Epoch: 11 November)

Event Time Altitude Azimuth Distance (km) Brightness Sun altitude
Exits shadow 23:46:41 58° 55° (NE) 1,264 3.5 -32.9°
Maximum altitude 23:47:00 59° 42° (NE) 1,258 3.5 -32.9°
Drops below altitude 10° 23:53:22 10° 326° (NW) 2,955 6.3 -33.3°
Sets 23:55:53 0° 322° (NW) 3,915 7.1 -33.5°
